Le nostre stazioni meteo in Italia

Pubblicità
Il mio iltempo24.it
Bousson, Italia (16058): Temperatura & dewpoint: 08.11.2019 10:00:00 - 14.11.2019 10:00:00 (CET)Bousson, Italia (16058): velocità del vento: 08.11.2019 10:00:00 - 14.11.2019 10:00:00 (CET)Bousson, Italia (16058): direzione del vento: 08.11.2019 10:00:00 - 14.11.2019 10:00:00 (CET)Bousson, Italia (16058): precipitazioni: 08.11.2019 10:00:00 - 14.11.2019 10:00:00 (CET)
Data & Tempo tt [°C] td [°C] ff [km/h] ff [kn] dd rr [mm]
14.11.2019 10:00:00 - - - - - -
14.11.2019 09:00:00 -3,4 -5,1 0 0 N -
14.11.2019 08:00:00 -4,4 -6,1 2 1 E -
14.11.2019 07:00:00 -5,0 -6,3 2 1 E -
14.11.2019 06:00:00 -6,3 -7,7 2 1 E -
14.11.2019 05:00:00 -6,0 -7,3 4 2 E -
14.11.2019 04:00:00 -6,4 -7,8 4 2 E -
14.11.2019 03:00:00 -6,9 -8,3 4 2 E -
14.11.2019 02:00:00 -7,1 -8,8 2 1 E -
14.11.2019 01:00:00 -6,7 -8,4 4 2 E -
14.11.2019 00:00:00 -6,1 -8,1 4 2 ENE -
13.11.2019 23:00:00 -5,8 -7,6 4 2 ENE -
13.11.2019 22:00:00 -5,2 -7,8 2 1 ENE -
13.11.2019 21:00:00 -4,7 -7,3 2 1 E -
13.11.2019 20:00:00 -3,8 -7,3 2 1 E -
13.11.2019 19:00:00 -2,7 -7,1 2 1 ENE -
13.11.2019 18:00:00 -1,4 -8,3 4 2 E -
13.11.2019 17:00:00 0,5 -11,4 4 2 E -
13.11.2019 16:00:00 4,8 -13,2 4 2 OSO -
13.11.2019 15:00:00 6,1 -14,7 8 4 OSO -
13.11.2019 14:00:00 6,4 -15,0 9 5 SO -
13.11.2019 13:00:00 5,3 -14,8 5 3 ENE -
13.11.2019 12:00:00 4,1 -12,9 8 4 OSO -
13.11.2019 11:00:00 -3,1 -5,0 5 3 ENE -
13.11.2019 10:00:00 -6,1 -7,1 2 1 E -
13.11.2019 09:00:00 -7,0 -8,0 2 1 ENE -
13.11.2019 08:00:00 -7,5 -8,7 4 2 E -
13.11.2019 07:00:00 -6,9 -8,4 4 2 E -
13.11.2019 06:00:00 -6,9 -8,6 4 2 E -
13.11.2019 05:00:00 -6,7 -8,8 4 2 E -
13.11.2019 04:00:00 -7,1 -9,7 2 1 ENE -
13.11.2019 03:00:00 -6,6 -9,5 2 1 E -
13.11.2019 02:00:00 -5,4 -10,1 2 1 ENE -
13.11.2019 01:00:00 -4,3 -10,8 5 3 E -
13.11.2019 00:00:00 -4,0 -10,3 5 3 E -
12.11.2019 23:00:00 -3,7 -11,3 4 2 ESE -
12.11.2019 22:00:00 -3,2 -10,8 4 2 ESE -
12.11.2019 21:00:00 -2,6 -10,5 9 5 E -
12.11.2019 20:00:00 -1,6 -10,3 8 4 E -
12.11.2019 19:00:00 -2,0 -8,8 5 3 E -
12.11.2019 18:00:00 -1,2 -7,6 5 3 E -
12.11.2019 17:00:00 0,3 -9,8 4 2 E -
12.11.2019 16:00:00 3,8 -11,9 2 1 O -
12.11.2019 15:00:00 6,4 -12,8 5 3 SO -
12.11.2019 14:00:00 6,1 -12,1 4 2 NNE -
12.11.2019 13:00:00 4,2 -7,4 5 3 E -
12.11.2019 12:00:00 1,8 -2,8 5 3 E -
12.11.2019 11:00:00 -1,4 -1,7 4 2 E -
12.11.2019 10:00:00 -3,9 -4,0 2 1 E -
12.11.2019 09:00:00 -4,7 -4,8 2 1 E -
12.11.2019 08:00:00 -4,8 -4,9 0 0 N -
12.11.2019 07:00:00 -4,4 -4,4 4 2 E -
12.11.2019 06:00:00 -4,5 -4,5 2 1 E -
12.11.2019 05:00:00 -4,3 -4,3 2 1 E -
12.11.2019 04:00:00 -4,1 -4,1 0 0 N -
12.11.2019 03:00:00 -3,9 -3,9 2 1 E -
12.11.2019 02:00:00 -3,3 -3,3 2 1 SE -
12.11.2019 01:00:00 -2,7 -2,7 2 1 NE -
12.11.2019 00:00:00 -2,7 -2,8 0 0 N -
11.11.2019 23:00:00 -2,4 -2,7 0 0 N -
11.11.2019 22:00:00 -1,7 -2,1 2 1 ENE -
11.11.2019 21:00:00 -0,8 -1,4 0 0 N -
11.11.2019 20:00:00 0,2 -0,2 2 1 E -
11.11.2019 19:00:00 0,3 -0,4 0 0 N -
11.11.2019 18:00:00 0,8 -0,2 2 1 O -
11.11.2019 17:00:00 1,6 -0,4 5 3 SO -
11.11.2019 16:00:00 2,3 -0,5 4 2 SO -
11.11.2019 15:00:00 - - - - - -
11.11.2019 14:00:00 2,5 -0,3 5 3 O -
11.11.2019 13:00:00 2,0 -1,0 9 5 OSO 0,0
11.11.2019 12:00:00 2,6 -0,4 2 1 E -
11.11.2019 11:00:00 2,6 -0,5 8 4 O -
11.11.2019 10:00:00 0,5 0,4 0 0 N -
11.11.2019 09:00:00 -0,9 -0,9 0 0 N -
11.11.2019 08:00:00 -1,9 -1,9 0 0 N -
11.11.2019 07:00:00 -2,3 -2,3 0 0 N -
11.11.2019 06:00:00 -3,1 -3,1 4 2 E -
11.11.2019 05:00:00 -3,7 -3,8 2 1 E -
11.11.2019 04:00:00 -3,5 -3,8 4 2 E -
11.11.2019 03:00:00 -2,9 -3,2 2 1 E -
11.11.2019 02:00:00 -2,3 -2,6 2 1 ENE -
11.11.2019 01:00:00 -1,6 -2,0 2 1 E -
11.11.2019 00:00:00 -0,8 -1,1 2 1 E -
10.11.2019 23:00:00 -0,2 -0,5 2 1 E -
10.11.2019 22:00:00 0,2 -0,2 0 0 N -
10.11.2019 21:00:00 0,5 -0,1 2 1 E -
10.11.2019 20:00:00 0,9 0,2 2 1 SSO -
10.11.2019 19:00:00 1,1 0,4 2 1 E -
10.11.2019 18:00:00 1,3 0,3 2 1 SO -
10.11.2019 17:00:00 1,7 0,5 5 3 SO -
10.11.2019 16:00:00 2,2 0,4 5 3 OSO -
10.11.2019 15:00:00 2,5 -0,1 8 4 OSO -
10.11.2019 14:00:00 2,7 -0,3 9 5 OSO -
10.11.2019 13:00:00 3,0 -1,2 8 4 O -
10.11.2019 12:00:00 3,1 -1,1 5 3 SO -
10.11.2019 11:00:00 1,5 -0,5 2 1 ESE -
10.11.2019 10:00:00 -1,0 -1,4 2 1 E -
10.11.2019 09:00:00 -2,9 -2,9 2 1 ENE -
10.11.2019 08:00:00 -4,6 -4,6 0 0 N -
10.11.2019 07:00:00 -5,3 -5,3 2 1 E -
10.11.2019 06:00:00 -5,4 -5,4 2 1 E -
10.11.2019 05:00:00 -6,2 -6,2 2 1 ENE -
10.11.2019 04:00:00 -6,6 -6,7 4 2 ENE -
10.11.2019 03:00:00 -6,5 -6,6 2 1 E -
10.11.2019 02:00:00 -6,2 -6,3 4 2 E -
10.11.2019 01:00:00 -6,2 -6,5 2 1 E -
10.11.2019 00:00:00 -5,8 -6,2 4 2 ENE -
09.11.2019 23:00:00 -5,4 -5,9 2 1 ENE -
09.11.2019 22:00:00 -4,5 -4,9 4 2 E -
09.11.2019 21:00:00 -4,5 -5,2 2 1 E -
09.11.2019 20:00:00 -4,1 -4,9 2 1 ENE -
09.11.2019 19:00:00 -3,4 -4,5 2 1 ENE -
09.11.2019 18:00:00 -2,5 -4,7 0 0 N -
09.11.2019 17:00:00 -0,9 -4,0 2 1 E -
09.11.2019 16:00:00 2,4 -5,6 4 2 SO -
09.11.2019 15:00:00 5,1 -4,6 4 2 SO -
09.11.2019 14:00:00 4,0 -1,9 4 2 E -
09.11.2019 13:00:00 2,6 -0,9 5 3 E -
09.11.2019 12:00:00 0,5 -0,7 4 2 E -
09.11.2019 11:00:00 -2,6 -2,6 4 2 E -
09.11.2019 10:00:00 -5,3 -5,3 2 1 E -
09.11.2019 09:00:00 -5,8 -5,8 2 1 ENE -
09.11.2019 08:00:00 -6,1 -6,2 2 1 ESE -
09.11.2019 07:00:00 -6,0 -6,0 2 1 ESE -
09.11.2019 06:00:00 -6,1 -6,1 2 1 E -
09.11.2019 05:00:00 -5,9 -5,9 4 2 ENE -
09.11.2019 04:00:00 -5,8 -5,8 2 1 E -
09.11.2019 03:00:00 -5,6 -5,6 2 1 E -
09.11.2019 02:00:00 -5,5 -5,5 4 2 E -
09.11.2019 01:00:00 -5,4 -5,4 2 1 E -
09.11.2019 00:00:00 -5,1 -5,1 2 1 E -
08.11.2019 23:00:00 -4,8 -4,9 0 0 N -
08.11.2019 22:00:00 -4,4 -4,7 0 0 N -
08.11.2019 21:00:00 -3,7 -4,0 0 0 N -
08.11.2019 20:00:00 -3,0 -3,4 0 0 N -
08.11.2019 19:00:00 -2,2 -2,8 0 0 N -
08.11.2019 18:00:00 -1,0 -1,7 2 1 ESE -
08.11.2019 17:00:00 0,3 -1,0 2 1 SE -
08.11.2019 16:00:00 3,1 0,3 2 1 SE -
08.11.2019 15:00:00 4,5 2,2 2 1 ENE -
08.11.2019 14:00:00 3,6 2,2 4 2 E -
08.11.2019 13:00:00 3,4 1,6 4 2 E -
08.11.2019 12:00:00 3,3 2,3 4 2 E -
08.11.2019 11:00:00 2,0 2,0 2 1 E -
08.11.2019 10:00:00 0,7 0,7 0 0 N -

tt = Temperatura
td = dewpoint
ff = velocità del vento
dd = direzione del vento
rr = precipitazioni

Stazioni seguenti

WeatherPro
AMSI
MeteoEarth